Home   Weather   Munich   Past weeks

Flag for Germany Past Weather in Munich, Bavaria, Germany — Yesterday and Last 2 Weeks

Now
48 °F

Sunny.


Feels Like: 48 °F
Forecast: 50 / 58 °F
Wind: 1 mph from North

Location: Munich / Franz Josef Strauss Airport

Current Time: Oct 1, 2016 at 9:15:01 AM

Latest Report: Oct 1, 2016 at 8:20 AM


Visibility: 10 mi

Pressure: 29.92 "Hg (28.07 "Hg at 526m altitude)

Humidity: 100%

Dew Point: 48 °F

Location of MunichLocation

Past Weather in Munich — Graph

°F

Munich Temperature Yesterday

Maximum temperature yesterday: 75 °F (at 1:50 PM)
Minimum temperature yesterday: 48 °F (at 5:20 AM)
Average temperature yesterday: 61 °F

High & Low Weather Summary for the Past Weeks

 TemperatureHumidityPressure
High75 °F (Sep 29, 3:50 PM)100% (Sep 17, 1:50 AM)30.42 "Hg (Sep 17, 1:50 AM)
Low37 °F (Sep 21, 5:50 AM)33% (Sep 29, 5:20 PM)29.86 "Hg (Sep 18, 5:20 AM)
Average55 °F85%30.13 "Hg
* Reported Sep 16 7:20 AM — Oct 1 7:50 AM, Munich, Weather by CustomWeather, © 2016

Note: Actual official high and low records may vary slightly from our data, if they occured in-between our weather recording intervals... More about our weather records

Advertising

Munich Weather History for the Previous 24 Hours

Scroll right to see more
 ConditionsComfort  
Time TempWeatherWind HumidityBarometerVisibility
7:50 AM
Sat, Oct 1
46 °FFog.No wind100%29.92 "HgN/A
7:20 AM46 °FFog.2 mph100%29.92 "HgN/A
6:50 AM46 °FFog.1 mph100%29.92 "HgN/A
6:20 AM46 °FClear.1 mph100%29.92 "Hg10 mi
5:50 AM46 °FClear.2 mph100%29.92 "Hg10 mi
5:20 AM46 °FClear.1 mph100%29.92 "Hg10 mi
4:50 AM46 °FClear.2 mph100%29.92 "Hg10 mi
4:20 AM46 °FClear.1 mph100%29.92 "Hg10 mi
3:50 AM46 °FClear.No wind100%29.95 "Hg10 mi
3:20 AM46 °FClear.2 mph100%29.95 "Hg10 mi
2:50 AM46 °FClear.1 mph100%29.95 "Hg10 mi
2:20 AM46 °FClear.1 mph100%29.95 "Hg10 mi
1:50 AM46 °FClear.1 mph100%29.98 "Hg10 mi
1:20 AM48 °FClear.1 mph100%29.98 "Hg10 mi
12:50 AM50 °FClear.2 mph94%29.98 "Hg10 mi
12:20 AM48 °FClear.3 mph94%29.98 "Hg10 mi
11:50 PM
Fri, Sep 30
50 °FClear.2 mph94%30.01 "Hg10 mi
11:20 PM52 °FClear.2 mph82%30.01 "Hg10 mi
10:50 PM54 °FClear.1 mph77%30.01 "Hg10 mi
10:20 PM55 °FClear.1 mph77%30.01 "Hg10 mi
9:50 PM55 °FClear.5 mph77%30.01 "Hg10 mi
9:20 PM57 °FClear.2 mph72%30.01 "Hg10 mi
8:50 PM59 °FClear.3 mph68%30.01 "Hg10 mi
8:20 PM59 °FClear.1 mph63%30.01 "Hg10 mi
7:50 PM63 °FClear.6 mph59%30.01 "Hg10 mi
7:20 PM64 °FClear.7 mph56%30.01 "Hg10 mi
6:50 PM68 °FSunny.6 mph46%30.01 "Hg10 mi
6:20 PM70 °FSunny.8 mph40%30.01 "Hg10 mi
5:50 PM73 °FSunny.6 mph36%29.98 "Hg10 mi
5:20 PM73 °FPassing clouds.6 mph36%29.98 "HgN/A
4:50 PM75 °FPassing clouds.7 mph34%29.98 "HgN/A
4:20 PM75 °FPassing clouds.8 mph34%30.01 "HgN/A
3:50 PM75 °FPassing clouds.7 mph34%30.01 "HgN/A
3:20 PM75 °FPassing clouds.10 mph36%30.01 "HgN/A
2:50 PM75 °FSunny.10 mph39%30.01 "Hg10 mi
2:20 PM75 °FPassing clouds.14 mph36%30.01 "HgN/A
1:50 PM75 °FPassing clouds.12 mph39%30.04 "HgN/A
1:20 PM73 °FPassing clouds.13 mph44%30.04 "HgN/A
12:50 PM73 °FSunny.9 mph44%30.04 "Hg10 mi
12:20 PM73 °FPassing clouds.13 mph44%30.07 "HgN/A
11:50 AM72 °FSunny.10 mph47%30.07 "Hg10 mi
11:20 AM70 °FSunny.13 mph50%30.07 "Hg10 mi
10:50 AM68 °FSunny.14 mph53%30.07 "Hg10 mi
10:20 AM66 °FPassing clouds.8 mph56%30.07 "HgN/A
9:50 AM63 °FPassing clouds.5 mph64%30.07 "HgN/A
9:20 AM61 °FPassing clouds.3 mph68%30.07 "HgN/A
Weather by CustomWeather, © 2016

See weather overviewHow to use our weather pages